User: anonymous   Login
Location: Nairn
(57.5833°N, 3.8667°W)
Time: 18:35:20
(UTC+00:00)
Language:

Cosmos 1980 - Orbit

View from above orbital plane
View from above orbital plane
View from above satellite
View from above satellite

Ground track
Ground track

The orbit data is extracted from the following two-line orbital elements,

1 19649U 88102A   20297.92673795 -.00000263 +00000-0 -11158-3 0  9998
2 19649 071.0024 015.1589 0007828 258.1390 101.8855 14.14717047647514
Epoch (UTC): 23 October 2020 22:14:30
Eccentricity: 0.0007828
inclination: 71.0024°
perigee height: 837 km
apogee height: 849 km
right ascension of ascending node: 15.1589°
argument of perigee: 258.1390°
revolutions per day: 14.14717047
mean anomaly at epoch: 101.8855°
orbit number at epoch: 64751

The dashed part of the orbit path shows where the satellite is in the earth's shadow,  

DLR